CW6344 Weather Reports


time (UTC)temp
C
wind
direction
speed
KPH
gust
KPH
rain 1hr
cm
rain 24hr
cm
rain mn
cm
humidity
%
barometer
mb
20260506111456 18 206 3.2 9.7 0.00 0.00 0.00 72 1011.1
20260506110456 18 264 4.8 4.8 0.00 0.00 0.00 73 1011.2
20260506105457 18 221 0.0 4.8 0.00 0.00 0.00 72 1011.0
20260506104456 18 243 1.6 11.3 0.00 0.00 0.00 72 1011.1
20260506103457 18 237 0.0 3.2 0.00 0.00 0.00 72 1010.9
20260506102657 18 223 3.2 3.2 0.00 0.00 0.00 73 1010.9
20260506101456 18 222 0.0 4.8 0.00 0.00 0.00 73 1010.9
20260506100456 18 279 0.0 3.2 0.00 0.00 0.00 73 1010.9
20260506095457 18 320 0.0 3.2 0.00 0.00 0.00 73 1010.9
20260506094457 18 215 1.6 3.2 0.00 0.00 0.00 73 1010.9
20260506093456 18 236 0.0 3.2 0.00 0.00 0.00 74 1010.9
20260506092457 18 77 1.6 9.7 0.00 0.00 0.00 74 1010.9
20260506091457 18 306 1.6 9.7 0.00 0.00 0.00 74 1011.0
20260506090457 18 214 3.2 4.8 0.00 0.00 0.00 74 1010.8
20260506085457 18 305 4.8 6.4 0.00 0.00 0.00 74 1011.0
20260506084457 18 163 1.6 6.4 0.00 0.00 0.00 74 1011.1
20260506083457 18 243 3.2 4.8 0.00 0.00 0.00 74 1011.0
20260506082457 18 302 4.8 9.7 0.00 0.00 0.00 74 1010.9
20260506081457 18 186 3.2 11.3 0.00 0.00 0.00 74 1011.0
20260506080457 18 207 0.0 9.7 0.00 0.00 0.00 74 1011.1
20260506073457 18 121 0.0 4.8 0.00 0.00 0.00 74 1011.1
20260506072457 18 151 1.6 4.8 0.00 0.00 0.00 73 1011.3
20260506071457 18 244 0.0 3.2 0.00 0.00 0.00 73 1011.3
20260506070457 18 252 1.6 3.2 0.00 0.00 0.00 73 1011.3
20260506062457 19 279 1.6 6.4 0.00 0.00 0.00 72 1011.3
20260506060457 20 360 6.4 6.4 0.00 0.00 0.00 71 1011.5
20260506050457 21 127 0.0 8.0 0.00 0.00 0.00 68 1011.9
20260506044457 21 9 3.2 3.2 0.00 0.00 0.00 67 1012.0
20260506043457 21 101 1.6 8.0 0.00 0.00 0.00 66 1011.9
20260506042457 21 145 0.0 4.8 0.00 0.00 0.00 65 1011.9
20260506041457 21 121 0.0 1.6 0.00 0.00 0.00 64 1011.8
20260506040457 21 132 1.6 3.2 0.00 0.00 0.00 64 1011.8
20260506035457 21 118 1.6 4.8 0.00 0.00 0.00 63 1011.8
20260506034457 21 164 1.6 1.6 0.00 0.00 0.00 62 1011.8
20260506033457 21 355 0.0 1.6 0.00 0.00 0.00 61 1011.9
20260506032527 22 30 0.0 1.6 0.00 0.00 0.00 60 1011.7
20260506031457 21 68 0.0 4.8 0.00 0.00 0.00 59 1011.8
20260506030457 22 94 0.0 3.2 0.00 0.00 0.00 58 1011.8
20260506025457 22 224 0.0 0.0 0.00 0.00 0.00 57 1011.8
20260506024657 22 23 1.6 1.6 0.00 0.00 0.00 56 1011.8
20260506023457 22 5 1.6 4.8 0.00 0.00 0.00 56 1011.8
20260506022527 22 173 1.6 3.2 0.00 0.00 0.00 55 1011.9
20260506020457 23 169 0.0 1.6 0.00 0.00 0.00 52 1011.7
20260506015457 22 84 0.0 3.2 0.00 0.00 0.00 52 1011.7
20260506014457 23 244 0.0 3.2 0.00 0.00 0.00 51 1011.7
20260506013457 23 82 0.0 4.8 0.00 0.00 0.00 50 1011.5
20260506012457 23 219 1.6 6.4 0.00 0.00 0.00 49 1011.5
20260506011457 23 238 3.2 4.8 0.00 0.00 0.00 48 1011.4
20260506010457 23 211 1.6 3.2 0.00 0.00 0.00 48 1011.2
20260506005457 23 196 0.0 1.6 0.00 0.00 0.00 47 1011.1
20260506004457 24 338 1.6 4.8 0.00 0.00 0.00 47 1011.1
20260506003457 24 299 0.0 4.8 0.00 0.00 0.00 46 1010.9
20260506002457 24 213 3.2 3.2 0.00 0.00 0.00 45 1010.9
20260506001457 25 200 0.0 1.6 0.00 0.00 0.00 44 1010.8
20260506000457 25 178 3.2 4.8 0.00 0.00 0.00 43 1010.7
20260505235457 25 237 0.0 8.0 0.00 0.00 0.00 43 1010.6
20260505234457 25 168 0.0 6.4 0.00 0.00 0.00 41 1010.5
20260505233457 26 205 1.6 4.8 0.00 0.00 0.00 40 1010.4
20260505232457 26 200 3.2 4.8 0.00 0.00 0.00 40 1010.3
20260505231457 26 144 3.2 4.8 0.00 0.00 0.00 38 1010.4
20260505230457 26 155 3.2 3.2 0.00 0.00 0.00 39 1010.3
20260505225457 26 199 3.2 9.7 0.00 0.00 0.00 38 1010.2
20260505224457 26 160 1.6 4.8 0.00 0.00 0.00 37 1010.2
20260505223457 26 182 3.2 6.4 0.00 0.00 0.00 38 1010.2
20260505222457 27 67 0.0 11.3 0.00 0.00 0.00 37 1010.2
20260505221457 27 240 1.6 4.8 0.00 0.00 0.00 36 1010.2
20260505220557 27 180 4.8 9.7 0.00 0.00 0.00 35 1010.1
20260505215457 27 342 1.6 8.0 0.00 0.00 0.00 35 1010.1
20260505214457 27 5 0.0 11.3 0.00 0.00 0.00 34 1010.1
20260505213457 28 253 4.8 6.4 0.00 0.00 0.00 32 1010.1
20260505212457 28 215 0.0 12.9 0.00 0.00 0.00 32 1010.1
20260505211457 28 298 1.6 8.0 0.00 0.00 0.00 35 1010.0
20260505210457 28 152 1.6 11.3 0.00 0.00 0.00 34 1010.2
20260505204458 28 130 3.2 12.9 0.00 0.00 0.00 31 1010.1
20260505203457 29 207 0.0 9.7 0.00 0.00 0.00 34 1010.1
20260505202457 28 227 6.4 6.4 0.00 0.00 0.00 33 1010.2
20260505201457 28 247 3.2 16.1 0.00 0.00 0.00 36 1010.4
20260505200457 28 212 1.6 4.8 0.00 0.00 0.00 36 1010.6
20260505195457 28 132 3.2 11.3 0.00 0.00 0.00 33 1010.7
20260505194457 28 148 1.6 8.0 0.00 0.00 0.00 33 1010.8
20260505193457 28 163 14.5 14.5 0.00 0.00 0.00 36 1011.0
20260505192527 28 165 4.8 6.4 0.00 0.00 0.00 39 1011.1
20260505191457 28 275 8.0 9.7 0.00 0.00 0.00 37 1011.3
20260505190527 28 157 1.6 4.8 0.00 0.00 0.00 38 1011.3
20260505185457 28 355 3.2 6.4 0.00 0.00 0.00 37 1011.5
20260505184457 28 312 1.6 11.3 0.00 0.00 0.00 37 1011.6
20260505183457 28 310 4.8 8.0 0.00 0.00 0.00 39 1011.7
20260505182457 28 115 11.3 12.9 0.00 0.00 0.00 39 1011.6
20260505180457 27 337 1.6 12.9 0.00 0.00 0.00 39 1012.0
20260505174458 27 296 3.2 12.9 0.00 0.00 0.00 42 1012.0
20260505173458 27 194 3.2 6.4 0.00 0.00 0.00 41 1012.0
20260505172457 27 156 3.2 8.0 0.00 0.00 0.00 43 1012.1
20260505171457 27 74 3.2 4.8 0.00 0.00 0.00 42 1012.3
20260505170458 26 198 3.2 4.8 0.00 0.00 0.00 43 1012.4
20260505165457 26 211 4.8 6.4 0.00 0.00 0.00 41 1012.6
20260505164458 26 117 4.8 9.7 0.00 0.00 0.00 42 1012.8
20260505163458 26 178 0.0 4.8 0.00 0.00 0.00 46 1012.8
20260505162458 26 240 3.2 4.8 0.00 0.00 0.00 48 1012.8
20260505161457 26 278 1.6 4.8 0.00 0.00 0.00 48 1012.9
20260505160458 25 293 1.6 6.4 0.00 0.00 0.00 50 1013.1
20260505152457 24 193 8.0 8.0 0.00 0.00 0.00 54 1013.1
20260505151458 23 230 0.0 3.2 0.00 0.00 0.00 55 1013.1
20260505150458 23 262 0.0 8.0 0.00 0.00 0.00 54 1013.1
20260505140528 21 211 1.6 4.8 0.00 0.00 0.00 59 1013.1
20260505124528 18 225 1.6 9.7 0.00 0.00 0.00 66 1013.2
20260505123458 18 298 4.8 9.7 0.00 0.00 0.00 66 1013.0
20260505122458 18 186 1.6 4.8 0.00 0.00 0.00 65 1013.1
20260505121458 18 324 0.0 8.0 0.00 0.00 0.00 65 1013.1
20260505120458 18 259 0.0 6.4 0.00 0.00 0.00 66 1013.0
20260505115458 18 286 4.8 8.0 0.00 0.00 0.00 67 1012.9
20260505114458 17 257 1.6 8.0 0.00 0.00 0.00 66 1012.9
20260505113458 17 220 1.6 4.8 0.00 0.00 0.00 68 1012.8
20260505112458 17 195 0.0 4.8 0.00 0.00 0.00 68 1012.7